[[{"header":{"parameterUnit":"m.s-1","parameterCategory":1,"la1":30.2991,"la2":30.254,"lo1":-89.0895,"lo2":-89.0444,"dy":0.0017,"dx":0.0017,"nx":28,"ny":28,"refTime":"2025-05-14T21:00:00:Z","depth":0,"parameterNumber":2,"parameterNumberName":"U-component_of_WINDS"},"data":[0,0,0,0,0,0,0,0,0,0,0,0,0,0,0,0,0,0,0,0,0,0,0,0,0,0,0,0,0,0,0,0,0,0,0,0,0,0,0,0,0,0,0,0,0,0,0,0,0,0,0,0,0,0,0,0,0,0,0.8822,0.8822,0,0.8854,0.8854,0.8855,0.883,0.8829,0.8828,0.8827,0.886,0.8862,0.8864,0,0,0,0,0,0,0,0,0,0,0,0,0,0.8738,0.8739,0.8822,0.8822,0.8822,0.8854,0.8854,0.8855,0.883,0.8829,0.8828,0.8826,0.8859,0.8861,0.8864,0,0,0,0,0,0,0,0,0,0,0,0,0,0.8773,0.874,0.8822,0.8814,0.8814,0.8854,0.8854,0.8855,0.883,0.8829,0.8827,0.8826,0.8858,0.8861,0.8864,0.8913,0,0,0.8873,0.8874,0,0,0,0,0,0,0,0,0.8771,0.8776,0.8815,0.8815,0.8814,0.8836,0.8837,0.8875,0.8831,0.8824,0.8827,0.8825,0.8853,0.8856,0.8866,0.8915,0.8916,0.8873,0.8875,0.8876,0.8877,0,0,0,0,0,0,0,0.8768,0.8774,0.8834,0.8815,0.8815,0.8809,0.8812,0.8844,0.8847,0.8825,0.8823,0.8827,0.8853,0.8863,0.8867,0.8917,0.8873,0.8875,0.8877,0.8878,0.9007,0.9008,0,0,0,0,0,0,0.8767,0.8772,0.8833,0.8835,0.8788,0.8811,0.8815,0.8831,0.8847,0.8848,0.8828,0.8826,0.8859,0.8863,0.8868,0.8926,0.8876,0.8878,0.888,0.9005,0.9007,0.9009,0,0,0,0,0,0,0.8765,0.8772,0.8832,0.8803,0.881,0.8815,0.8833,0.8832,0.8843,0.885,0.885,0.8838,0.8858,0.8864,0.8902,0.8927,0.888,0.8882,0.9003,0.9006,0.9008,0.9043,0,0,0,0,0,0,0.8763,0.8772,0.8791,0.8804,0.8812,0.8866,0.8834,0.8834,0.8848,0.8845,0.8859,0.886,0.8857,0.8898,0.8905,0.893,0.8884,0.9001,0.9004,0.9007,0.904,0.9046,0.9052,0,0,0,0,0,0.876,0.88,0.8792,0.88,0.8836,0.8868,0.8872,0.8868,0.885,0.8869,0.8873,0.886,0.8923,0.8902,0.891,0.8936,0.8999,0.9003,0.9007,0.9037,0.9045,0.9052,0,0,0,0,0,0,0.8789,0.8801,0.8793,0.8838,0.8852,0.8863,0.8887,0.8877,0.8897,0.8893,0.8887,0.8891,0.8931,0.8937,0.8914,0.8984,0.8958,0.8964,0.8978,0.8986,0.8992,0.899,0.8887,0,0,0,0,0,0.8801,0.8826,0.8835,0.8874,0.8882,0.8883,0.8897,0.8893,0.8907,0.8912,0.8919,0.8934,0.8956,0.8972,0.8993,0.904,0.9043,0.9062,0.9068,0.9073,0.9078,0.9103,0.9111,0.9022,0.9022,0.9022,0,0,0.8826,0.8836,0.8852,0.8881,0.8891,0.8916,0.8888,0.8917,0.8935,0.8917,0.8953,0.8959,0.8974,0.9017,0.9036,0.9023,0.9103,0.9078,0.9082,0.9084,0.9108,0.9116,0.9124,0.9024,0.9024,0.9024,0,0,0.8884,0.8894,0.8927,0.8938,0.8954,0.8955,0.8963,0.8975,0.8978,0.9015,0.9001,0.9023,0.9062,0.9074,0.9084,0.9146,0.9134,0.9153,0.9186,0.921,0.9217,0.9223,0.9244,0.9252,0.9158,0.9158,0.9158,0,0.8913,0.8951,0.8946,0.8975,0.8988,0.8972,0.9005,0.9016,0.9038,0.9046,0.9032,0.9081,0.909,0.9135,0.915,0.9159,0.9168,0.9151,0.9216,0.9223,0.9228,0.9248,0.9256,0.916,0.916,0.916,0.9159,0,0.8985,0.9012,0.9037,0.9058,0.9074,0.9105,0.9104,0.912,0.9114,0.9116,0.9153,0.9163,0.9186,0.9197,0.9191,0.924,0.9232,0.9217,0.9191,0.9239,0.9258,0.9265,0.9163,0.9162,0.9162,0.9161,0,0,0.9063,0.9081,0.909,0.9099,0.9115,0.9135,0.9165,0.9187,0.9201,0.9217,0.9241,0.9275,0.9261,0.9273,0.9269,0.929,0.9337,0.9272,0.9273,0.9284,0.9391,0.9401,0.9411,0.9329,0.9331,0.9332,0.9389,0,0.9121,0.9174,0.917,0.9219,0.9243,0.9228,0.9254,0.9266,0.9269,0.9289,0.9292,0.9316,0.9296,0.9303,0.9323,0.9327,0.9358,0.9323,0.9352,0.9353,0.9348,0.942,0.9432,0.9486,0.9397,0.9398,0.9399,0,0.9196,0.9214,0.9266,0.9277,0.9287,0.9311,0.933,0.935,0.9364,0.9364,0.9377,0.9369,0.9399,0.9372,0.9413,0.9389,0.94,0.9404,0.9406,0.9408,0.9378,0.9424,0.9503,0.951,0.941,0.9409,0.9409,0,0.9246,0.9284,0.9319,0.9328,0.9342,0.9359,0.9366,0.9377,0.9391,0.9408,0.9416,0.9437,0.9448,0.9464,0.9461,0.9442,0.9502,0.9475,0.9503,0.9503,0.9516,0.9515,0.9597,0.9524,0.9524,0.9524,0.9524,0,0.9311,0.9344,0.9342,0.9364,0.9399,0.9394,0.9429,0.9434,0.9444,0.9466,0.9454,0.9475,0.9471,0.9492,0.949,0.9523,0.9528,0.9529,0.9528,0.953,0.953,0.9537,0.9533,0.9526,0.9526,0.9525,0.9525,0,0.9374,0.9374,0.9412,0.9422,0.9426,0.9451,0.946,0.948,0.9482,0.951,0.9516,0.9518,0.9542,0.9541,0.9568,0.9567,0.9607,0.9603,0.9603,0.9602,0.9629,0.9626,0.9718,0.9729,0.965,0.9651,0.9651,0,0.9415,0.9439,0.9452,0.9466,0.9474,0.9497,0.951,0.9506,0.9521,0.9537,0.9555,0.9578,0.9596,0.9634,0.9638,0.9658,0.9653,0.9684,0.9656,0.9657,0.9653,0.9651,0.9653,0.9689,0.969,0.9691,0.9692,0,0.9488,0.9486,0.9506,0.9527,0.9543,0.9558,0.9573,0.9585,0.9582,0.9599,0.9623,0.9636,0.9664,0.9686,0.9705,0.9712,0.9701,0.97,0.9708,0.9709,0.9708,0.9708,0.9617,0.9698,0.9698,0.9697,0.9697,0.9696,0.954,0.9561,0.9573,0.9595,0.9606,0.9619,0.9638,0.9642,0.9662,0.9684,0.968,0.9707,0.9719,0.9744,0.9752,0.9772,0.9761,0.9772,0.9775,0.9777,0.978,0.9705,0.9776,0.9776,0.9776,0.9776,0.9775,0,0.9611,0.9618,0.9639,0.9659,0.9677,0.9666,0.9681,0.9696,0.972,0.9732,0.9749,0.9776,0.9798,0.9803,0.9824,0.9839,0.9835,0.9844,0.9843,0.9844,0.9789,0.978,0.9848,0.9848,0.9848,0.9848,0.9848,0.9848,0.965,0.9684,0.9685,0.9723,0.973,0.9756,0.9766,0.9778,0.9787,0.9818,0.9836,0.9839,0.9849,0.9869,0.9888,0.9889,0.9897,0.9909,0.9908,0.9856,0.9849,0.9842,0.9833,0.9911,0.9911,0.9961,0.9962,0.9962]},{"header":{"parameterUnit":"m.s-1","parameterCategory":1,"la1":30.2991,"la2":30.254,"lo1":-89.0895,"lo2":-89.0444,"dy":0.0017,"dx":0.0017,"nx":28,"ny":28,"refTime":"2025-05-14T21:00:00:Z","depth":0,"parameterNumber":3,"parameterNumberName":"V-component_of_WINDS"},"data":[0,0,0,0,0,0,0,0,0,0,0,0,0,0,0,0,0,0,0,0,0,0,0,0,0,0,0,0,0,0,0,0,0,0,0,0,0,0,0,0,0,0,0,0,0,0,0,0,0,0,0,0,0,0,0,0,0,0,5.5914,5.5915,0,5.5984,5.5985,5.5986,5.5928,5.5926,5.5923,5.5921,5.5988,5.5992,5.5996,0,0,0,0,0,0,0,0,0,0,0,0,0,5.5724,5.5728,5.5914,5.5915,5.5916,5.5984,5.5985,5.5986,5.5929,5.5926,5.5923,5.592,5.5987,5.5992,5.5997,0,0,0,0,0,0,0,0,0,0,0,0,0,5.5802,5.5729,5.5914,5.5895,5.5895,5.5984,5.5985,5.5986,5.5929,5.5926,5.5922,5.5919,5.5986,5.5991,5.5997,5.6107,0,0,5.6016,5.6019,0,0,0,0,0,0,0,0,5.5797,5.5809,5.5897,5.5897,5.5896,5.5944,5.5943,5.6027,5.593,5.5916,5.5921,5.5917,5.5976,5.5983,5.6004,5.6111,5.6113,5.6017,5.602,5.6023,5.6025,0,0,0,0,0,0,0,5.5792,5.5805,5.5942,5.5899,5.5898,5.5882,5.5889,5.5959,5.5965,5.5917,5.5913,5.5922,5.5975,5.5998,5.6005,5.6114,5.6016,5.6022,5.6025,5.6028,5.6314,5.6318,0,0,0,0,0,0,5.5789,5.5801,5.5939,5.5944,5.5837,5.5888,5.5896,5.5932,5.5965,5.5966,5.5925,5.5919,5.599,5.5998,5.6007,5.6138,5.6023,5.6028,5.6032,5.631,5.6315,5.6319,0,0,0,0,0,0,5.5786,5.5802,5.5937,5.5872,5.5887,5.5895,5.5936,5.5935,5.5958,5.5971,5.5971,5.5948,5.5987,5.5999,5.6083,5.614,5.6031,5.6037,5.6305,5.6311,5.6317,5.6401,0,0,0,0,0,0,5.578,5.5801,5.5845,5.5873,5.5891,5.6013,5.594,5.5939,5.597,5.5963,5.5992,5.5994,5.5985,5.6074,5.6089,5.6146,5.6041,5.63,5.6308,5.6315,5.6393,5.6409,5.6423,0,0,0,0,0,5.5774,5.5865,5.5847,5.5864,5.5946,5.6017,5.6027,5.6017,5.5974,5.6017,5.6025,5.5993,5.6131,5.6084,5.61,5.6159,5.6297,5.6306,5.6314,5.6387,5.6406,5.6422,0,0,0,0,0,0,5.5841,5.5868,5.5849,5.5952,5.5983,5.6007,5.6061,5.6037,5.608,5.6071,5.6054,5.6062,5.6151,5.6163,5.611,5.6267,5.6207,5.6219,5.6256,5.6275,5.6289,5.6285,5.6046,0,0,0,0,0,5.5868,5.5925,5.5945,5.6034,5.605,5.6053,5.6084,5.6073,5.6103,5.6116,5.613,5.6159,5.6209,5.6242,5.6289,5.6394,5.6399,5.6443,5.6458,5.647,5.6481,5.6537,5.6557,5.6348,5.6348,5.6348,0,0,5.5924,5.5946,5.5983,5.6048,5.6071,5.6129,5.6064,5.6128,5.6171,5.6125,5.6206,5.6217,5.6249,5.6344,5.6387,5.6357,5.6539,5.6481,5.649,5.6495,5.6548,5.6568,5.6586,5.6354,5.6353,5.6352,0,0,5.6056,5.6079,5.6156,5.618,5.6215,5.6216,5.6234,5.6262,5.6268,5.635,5.6316,5.6365,5.6452,5.6476,5.6499,5.6639,5.6611,5.6654,5.6732,5.6787,5.6803,5.6818,5.6868,5.6886,5.6665,5.6666,5.6666,0,5.6121,5.621,5.6197,5.6265,5.6294,5.6256,5.6332,5.6355,5.6404,5.6424,5.639,5.6497,5.6516,5.6616,5.6651,5.6671,5.669,5.6652,5.6802,5.6816,5.683,5.6877,5.6896,5.6671,5.667,5.667,5.6669,0,5.6287,5.6349,5.6406,5.6456,5.6491,5.6562,5.6559,5.6596,5.6581,5.6586,5.6668,5.6689,5.6739,5.6761,5.6748,5.686,5.684,5.6805,5.6744,5.6855,5.6899,5.6918,5.6678,5.6676,5.6675,5.6673,0,0,5.6466,5.6507,5.6528,5.655,5.6586,5.6632,5.6701,5.6751,5.6783,5.6817,5.6873,5.6947,5.6914,5.694,5.6928,5.6977,5.7086,5.6935,5.6935,5.6963,5.7211,5.7239,5.726,5.7067,5.7071,5.7073,5.7209,0,5.66,5.6722,5.6713,5.6827,5.6883,5.6847,5.6906,5.6934,5.6939,5.6985,5.699,5.7043,5.6995,5.7011,5.7057,5.7064,5.7136,5.7053,5.7119,5.7122,5.7114,5.7283,5.7313,5.744,5.7226,5.7229,5.7231,0,5.6773,5.6815,5.6936,5.6963,5.6986,5.704,5.7085,5.7131,5.716,5.716,5.719,5.7169,5.7237,5.7174,5.7266,5.721,5.7235,5.7242,5.7247,5.7254,5.7184,5.7295,5.748,5.7499,5.7258,5.7256,5.7254,0,5.6892,5.6978,5.7061,5.7081,5.7114,5.7153,5.7168,5.7194,5.7225,5.7263,5.7283,5.7328,5.7353,5.7388,5.7379,5.7334,5.7473,5.741,5.7474,5.7475,5.7507,5.7505,5.7699,5.7522,5.7521,5.7521,5.7521,0,5.7044,5.7119,5.7115,5.7167,5.7249,5.7236,5.7318,5.7328,5.7351,5.7403,5.7373,5.7421,5.7407,5.7454,5.7448,5.7525,5.7536,5.7537,5.7535,5.7541,5.7541,5.7558,5.755,5.7526,5.7525,5.7524,5.7523,0,5.7191,5.7191,5.728,5.7304,5.7312,5.7372,5.7392,5.7439,5.7442,5.7507,5.7521,5.7525,5.7579,5.7573,5.7633,5.7629,5.7725,5.7711,5.7716,5.7713,5.7779,5.7773,5.7991,5.8019,5.7823,5.7825,5.7827,0,5.7288,5.7346,5.7377,5.741,5.7428,5.7482,5.7513,5.7502,5.7535,5.7573,5.7616,5.7667,5.7708,5.7796,5.7802,5.7848,5.7835,5.7909,5.7842,5.7846,5.7837,5.7835,5.784,5.7922,5.7925,5.7926,5.7928,0,5.7461,5.7459,5.7506,5.7554,5.7593,5.7629,5.7662,5.7691,5.7682,5.7721,5.7777,5.7809,5.787,5.7922,5.7965,5.7978,5.7952,5.7949,5.7966,5.7973,5.7974,5.7975,5.7753,5.7944,5.7942,5.7941,5.794,5.794,5.7587,5.7637,5.7666,5.772,5.7744,5.7775,5.7821,5.783,5.7877,5.7927,5.7917,5.7979,5.8005,5.8061,5.8079,5.8126,5.8099,5.8125,5.8131,5.8138,5.8146,5.7966,5.8134,5.8133,5.8133,5.8132,5.8132,0,5.7759,5.7777,5.7826,5.7874,5.7916,5.7888,5.7923,5.796,5.8016,5.8043,5.8084,5.8148,5.8197,5.8207,5.8254,5.829,5.8279,5.8303,5.83,5.8304,5.8167,5.8148,5.8311,5.8311,5.8311,5.8311,5.8311,5.8311,5.7854,5.7936,5.7937,5.803,5.8045,5.8108,5.8131,5.8159,5.8181,5.8254,5.8295,5.8302,5.8322,5.837,5.8413,5.8415,5.8433,5.8462,5.8459,5.8331,5.8313,5.8296,5.8278,5.8466,5.8466,5.8592,5.8593,5.8594]}]]